Regional Weather Roundup
Issued by NWS

Home | Current Version | Previous Version | Text Only | Print | Product List | Glossary Off
Versions: 1 2 3 4 5 6 7 8 9 10 11 12 13 14 15 16 17 18 19 20 21 22 23 24 25 26 27

000
ASUS45 KBOU 210506
RWRCO

WEATHER ROUNDUP FOR COLORADO
NATIONAL WEATHER SERVICE DENVER/BOULDER CO
1100 PM MDT SUN APR 20 2014

NOTE: "FAIR" INDICATES FEW OR NO CLOUDS BELOW 12000 FEET WITH NO
SIGNIFICANT WEATHER AND/OR OBSTRUCTIONS TO VISIBILITY.

COZ001>005-013-030-031-210600-
...NORTHWEST COLORADO...

CITY           SKY/WX    TMP DP  RH WIND       PRES   REMARKS
CRAIG          CLOUDY    44  38  79 VRB3      30.24R
HAYDEN         MOCLDY    43  36  75 SE9       30.26S
MEEKER         PTCLDY    45  35  68 CALM      30.24R
MOUNT WERNER   PTCLDY    39  21  48 W6        30.40S
STEAMBOAT SPGS PTCLDY    39  37  91 CALM      30.26S
WALDEN         PTCLDY    32  30  93 E8        30.28F WCI  25
$$

COZ006>008-011-210600-
...WEST CENTRAL VALLEYS...

CITY           SKY/WX    TMP DP  RH WIND       PRES   REMARKS
GRAND JUNCTION MOCLDY    54  39  57 S3        30.16S
MONTROSE       PTCLDY    53  37  54 S3        30.22S
EAGLE          PTCLDY    45  36  70 E8        30.28S
RIFLE          PTCLDY    47  38  71 SW6       30.23R
DELTA          PTCLDY    58  40  51 CALM      30.19S
NUCLA            N/A     52  34  50 SE9       30.23S
$$

COZ017>023-064>068-210600-
...SOUTHWEST COLORADO...

CITY           SKY/WX    TMP DP  RH WIND       PRES   REMARKS
DURANGO        CLEAR     52  27  38 N9        30.18S
CORTEZ         CLEAR     45  31  58 NE5       30.19R
PAGOSA SPRINGS CLEAR     49  21  34 CALM      30.23R
TELLURIDE      PTCLDY    39  30  70 CALM      30.34S
WOLF CREEK PAS CLEAR     32  23  69 NE12      30.42S WCI  23
$$

COZ009-010-012-014-032>034-037-058>063-210600-
...CENTRAL COLORADO...

CITY           SKY/WX    TMP DP  RH WIND       PRES   REMARKS
ASPEN          PTCLDY    40  37  89 SE8       30.30F
BUENA VISTA    CLOUDY    49  31  49 NW14G22   30.26S
COPPER MTN     PTCLDY    34  28  80 W13       30.44R WCI  25
BERTHOUD PASS  FAIR      25  16  68 NW12G17   30.45S WCI  14
COTTONWOOD PAS CLOUDY    45  28  53 NW12G18   30.35R
GUNNISON       PTCLDY    48  28  46 N6        30.31S
KREMMLING      CLEAR     37  32  81 CALM      30.31R
LEADVILLE      PTCLDY    33  27  78 CALM      30.36R
MONARCH PASS   PTCLDY    32  23  69 CALM      30.53S
SALIDA         MOCLDY    46  35  67 SW7       30.33S
SUNLIGHT       PTCLDY    36  32  87 CALM      30.42S
WILKERSON PASS MOCLDY    34  28  80 CALM      30.43R
$$

COZ069>075-210600-
...SAN LUIS VALLEY/SANGRE DE CRISTO MOUNTAINS...

CITY           SKY/WX    TMP DP  RH WIND       PRES   REMARKS
ALAMOSA        PTCLDY    47  36  65 SW6       30.23R
LA VETA PASS   PTCLDY    34  30  86 NE3       30.34R
SAGUACHE       CLEAR     48  32  53 NW16      30.26S
$$

COZ035-036-038>040-210600-
...NORTHERN COLORADO FRONT RANGE...

CITY           SKY/WX    TMP DP  RH WIND       PRES   REMARKS
DENVER INTL AP PTCLDY    56  37  49 W10       30.12R
DMNS CITY PARK   N/A     56  37  48 S6        30.12S
AURORA         MOCLDY    54  37  54 SW8       30.13S
FRONT RANGE AP NOT AVBL
ERIE MUNI ARPT PTCLDY    52  38  59 CALM      30.11S
BOULDER MUN AP PTCLDY    55  32  41 W7        30.11F
CENTENNIAL     PTCLDY    52  36  54 SW12      30.14F
BROOMFIELD     NOT AVBL
FORT COLLINS   PTCLDY    54  36  50 CALM      30.12S
LONGMONT       PTCLDY    49  40  69 SW6       30.13S
$$

COZ041-046-047-076>085-087-088-210600-
...PIKES PEAK/PALMER DIVIDE AND SOUTHERN FOOTHILLS...

CITY           SKY/WX    TMP DP  RH WIND       PRES   REMARKS
COLO. SPRINGS  MOCLDY    54  35  48 NW15      30.17S
A. F. ACADEMY  PTCLDY    50  37  61 NW6       30.19F
ELLICOTT       NOT AVBL
FALCON         MOCLDY    53  33  46 NW14G21   30.20S
FORT CARSON    MOCLDY    56  36  46 NW23G32   30.15R
LIMON          CLEAR     47  36  65 W7        30.11R
MONUMENT HILL  PTCLDY    43  36  75 SW10      30.20S
TRINIDAD       CLEAR     49  42  77 W12       30.13S
$$

COZ042>045-048>051-090-091-210600-
...NORTHEAST COLORADO...

CITY           SKY/WX    TMP DP  RH WIND       PRES   REMARKS
GREELEY ARPT   CLEAR     52  37  58 N8        30.10S
AKRON          CLEAR     53  36  52 NW3       30.06R
BURLINGTON     CLEAR     48  40  73 CALM      30.03S
WRAY             N/A     51  45  79 W7        30.00F HAZE
STERLING       CLEAR     50  36  57 N7        30.04R
HOLYOKE        CLEAR     54  45  71 NW8       30.01S
FORT MORGAN    PTCLDY    56  34  43 N13       30.08R
$$

COZ086-089-092>099-210600-
...SOUTHEAST COLORADO...

CITY           SKY/WX    TMP DP  RH WIND       PRES   REMARKS
PUEBLO         MOCLDY    63  37  38 NE6       30.08R
LA JUNTA       CLEAR     56  47  71 W9        30.04S
LAMAR          CLEAR     50  44  80 SW3       29.99R
SPRINGFIELD      N/A     52  46  80 NW8       30.02S
$$



USA.gov is the U.S. government's official web portal to all federal, state and local government web resources and services.